Content
SEND FEEDBACK

Daily
Averages
Monthly
Summary
United States of America

OCONTO, NEBRASKA


Home > North America > United States > Nebraska
Elevation: 2578 feet     Latitude: 41 08N     Longitude: 099 40W

WEATHER
 
SELECT A DAY
Number of Records: 176,439;   Date Range: 1/1/95 - 8/15/14
 
SHARE

PRINT THIS DATA

[ ← Previous Day ]
WEATHER ALMANAC - FEBRUARY 13, 2013
[ Next Day → ]
[ °C ]   °F
Weather ElementAverageHighLow
Temperature36.9 °F46.9 °F (2:53 pm)28 °F (6:53 am)
Dewpoint23.9 °F30 °F (9:53 pm)17.1 °F (7:53 am)
Humidity60.3 %78 % (11:53 pm)45 % (12:53 pm)
Barometer29.88 in29.95 in (1:53 am)29.80 in (2:53 pm)
Wind Speed13.8 mph18.4 mph (11:53 am)
Wind Gust24.2 mph (12:53 pm)
Weather ElementAverage
Visibility10 mi
Wind DirectionWNW (295.7 °)

Weather ElementTotal
Precipitation---
Heating Degree Days27.6 (Base 65)
Averaged from 23 records on February 13, 2013
WEATHER CONDITIONS BREAKOUT
WIND DIRECTION BREAKOUT
WEATHER BY HOUR - FEBRUARY 13, 2013
[ °C ]   °F
Local TimeTemperatureDewpointHumidityBarometerVisibilityWind DirectionWind SpeedGust SpeedPrecipitationEventsConditions
1:53 AM30.0 °F21.0 °F69 %29.95 in10.0 miWNW (300°)15.0 mphMostly Cloudy
2:53 AM30.0 °F21.0 °F69 %29.93 in10.0 miNW (310°)16.1 mphOvercast
3:53 AM28.9 °F19.9 °F69 %29.92 in10.0 miNW (320°)15.0 mphClear
4:53 AM28.9 °F19.0 °F67 %29.91 in10.0 miWNW (300°)13.8 mphClear
5:53 AM30.2 °F17.6 °F60 %29.86 in10.0 miWNW (300°)15.0 mphClear
6:53 AM28.0 °F18.0 °F66 %29.91 in10.0 miWest (280°)6.9 mphClear
7:53 AM28.0 °F17.1 °F63 %29.91 in10.0 miWest (280°)9.2 mphClear
8:53 AM30.0 °F19.0 °F64 %29.92 in10.0 miWNW (290°)11.5 mphClear
9:53 AM34.0 °F19.9 °F56 %29.90 in10.0 miWest (280°)12.7 mphClear
10:53 AM39.0 °F21.9 °F50 %29.88 in10.0 miWNW (300°)17.3 mphClear
11:53 AM41.0 °F21.9 °F47 %29.87 in10.0 miWest (280°)18.4 mphClear
12:53 PM44.1 °F24.1 °F45 %29.84 in10.0 miWNW (290°)16.1 mph24.2 mphClear
1:53 PM46.0 °F26.1 °F46 %29.83 in10.0 miWNW (300°)18.4 mphClear
2:53 PM46.9 °F27.0 °F46 %29.80 in10.0 miWNW (290°)17.3 mphScattered Clouds
3:53 PM46.9 °F27.0 °F46 %29.81 in10.0 miWNW (290°)15.0 mph23.0 mphOvercast
4:53 PM46.9 °F28.0 °F48 %29.81 in10.0 miWNW (300°)13.8 mphClear
5:53 PM43.0 °F28.0 °F56 %29.82 in10.0 miWNW (290°)9.2 mphClear
6:53 PM39.0 °F28.0 °F65 %29.84 in10.0 miWNW (290°)8.1 mphClear
7:53 PM39.0 °F27.0 °F62 %29.85 in10.0 miWest (280°)10.4 mphScattered Clouds
8:53 PM39.9 °F28.9 °F65 %29.87 in10.0 miWNW (300°)13.8 mphOvercast
9:53 PM37.9 °F30.0 °F73 %29.89 in10.0 miWNW (300°)13.8 mphMostly Cloudy
10:53 PM37.0 °F30.0 °F76 %29.91 in10.0 miNW (310°)16.1 mphClear
11:53 PM35.1 °F28.9 °F78 %29.93 in10.0 miNW (320°)15.0 mphClear
Hourly data recorded from KBBW, located miles away from Oconto, Nebraska







STORIES FROM OUR PARTNERS